This is the latest recevied weather packets stored in our database for station/object KF4UQS-14. If no packets are shown the sender has not sent any weather packets the latest 10 day(s).
| Time | Temp. | Humidity | Pressure | Rain* | Wind** | Luminosity | Snow |
|---|---|---|---|---|---|---|---|
| 1778192147 | 10.56° C | 92% | 1010.2 hPa | 0 mm | - | 29 W/m² | - |
| 1778191844 | 11.11° C | 92% | 1010.4 hPa | 0 mm | - | 41 W/m² | - |
| 1778191541 | 11.11° C | 91% | 1010.2 hPa | 1.27 mm | - | 50 W/m² | - |
| 1778191238 | 11.11° C | 92% | 1010.1 hPa | 1.27 mm | - | 42 W/m² | - |
| 1778190934 | 11.11° C | 94% | 1010.2 hPa | 0 mm | - | 45 W/m² | - |
| 1778190632 | 11.67° C | 96% | 1010.1 hPa | 1.78 mm | - | 44 W/m² | - |
| 1778190330 | 11.67° C | 96% | 1010.3 hPa | 1.78 mm | - | 33 W/m² | - |
| 1778190025 | 11.11° C | 96% | 1010.2 hPa | 0 mm | - | 50 W/m² | - |
| 1778189722 | 11.67° C | 96% | 1010.5 hPa | 1.27 mm | - | 53 W/m² | - |
| 1778189419 | 11.11° C | 96% | 1010.3 hPa | 1.27 mm | - | 66 W/m² | - |
| 1778189114 | 11.11° C | 96% | 1009.7 hPa | 1.78 mm | - | 90 W/m² | - |
| 1778188811 | 11.11° C | 96% | 1009.8 hPa | 1.78 mm | - | 184 W/m² | - |
| 1778188508 | 11.11° C | 95% | 1010 hPa | 1.27 mm | - | 113 W/m² | - |
| 1778188204 | 11.11° C | 95% | 1010.5 hPa | 1.27 mm | - | 88 W/m² | - |
| 1778187901 | 11.11° C | 95% | 1010.3 hPa | 1.27 mm | - | 105 W/m² | - |
| 1778187598 | 11.11° C | 94% | 1010.4 hPa | 1.78 mm | - | 89 W/m² | - |
| 1778187295 | 11.11° C | 95% | 1010.4 hPa | 3.05 mm | - | 85 W/m² | - |
| 1778186991 | 11.11° C | 95% | 1010 hPa | 1.27 mm | - | 82 W/m² | - |
| 1778186688 | 11.11° C | 95% | 1009.9 hPa | 1.78 mm | - | 64 W/m² | - |
| 1778186386 | 11.11° C | 95% | 1009.8 hPa | 1.78 mm | - | 76 W/m² | - |
| 1778186083 | 11.11° C | 95% | 1009.5 hPa | 1.27 mm | - | 165 W/m² | - |
| 1778185779 | 11.11° C | 96% | 1009.5 hPa | 3.05 mm | - | 211 W/m² | - |
| 1778185476 | 11.11° C | 97% | 1009.5 hPa | 1.78 mm | - | 135 W/m² | - |
| 1778185172 | 10.56° C | 99% | 1010 hPa | 1.78 mm | - | 66 W/m² | - |
| 1778184867 | 10.56° C | 99% | 1009.7 hPa | 3.05 mm | - | 64 W/m² | - |
* Rain latest hour (hover to see other rain measurements)
** Current wind speed in m/s (hover to see current wind gust speed)